{"data":{"norad_id":65675,"intl_designator":"2025-211Z","name":"STARLINK-34749","alt_names":[],"object_type":"PAYLOAD","status":"ACTIVE","operator":null,"country":"US","launch_date":"2025-09-19","launch_site_code":"AFWTR","launch_vehicle":null,"mission":null,"orbit_class":"UNKNOWN","rcs_meters":null,"size_class":null,"mass_kg":null,"dimensions":null,"purposes":["comms"],"wikipedia_slug":null,"has_3d_model":false,"image_url":null,"decayed_at":null,"tle_current":{"epoch":"2026-05-25T02:15:21.428928Z","epoch_age_seconds":77047,"freshness":"FRESH","line1":"1 65675U 25211Z   26145.09399802  .00002723  00000+0  19268-3 0  9990","line2":"2 65675  97.4468 189.0906 0002003 120.0512 240.0914 15.05658713 38549","mean_motion":15.05658713,"eccentricity":0.0002003,"inclination_deg":97.4468,"raan_deg":189.0906,"arg_perigee_deg":120.0512,"mean_anomaly_deg":240.0914,"bstar":0.00019268,"rev_number":3854,"period_min":95.639203464032,"perigee_km":548.0968253323,"apogee_km":550.87203047632,"semimajor_km":6927.6214279043,"source":"CELESTRAK","updated_at":"2026-05-25T13:38:20.893056Z"}}}